Torna al catalogo

STARLINK-36371

AttivoComunicazioniVLEO
NORAD 67938·PAYLOAD·🇺🇸 United States

Lanciato Feb 24, 2026 da Vandenberg Space Force Base

Loading…

Prossimi Passaggi (prossime 24 ore)

TLE

AggiornatoSource: CelesTrak SupGP

Epoca: Sep 14, 2026, 21:12 UTC

1 67938C 26037G   26257.88381944  .00018146  00000+0  65729-3 0  2576
2 67938  43.0000 202.3959 0001288 257.0253 112.1903 15.27568314    15

Traccia STARLINK-36371 in tempo reale con AllMySat

Download on the App Store